Regional Weather Roundup
Issued by NWS Albany, NY

Home | Current Version | Previous Version | Text Only | Print | Product List | Glossary On
Versions: 1 2 3 4 5 6 7 8 9 10 11 12 13 14 15 16 17 18 19 20 21 22 23 24 25 26 27 28 29 30 31 32 33 34 35 36 37 38 39 40 41 42 43 44 45 46 47 48 49 50
000
ASUS41 KALY 241710
RWRALY

NEW YORK STATE HOURLY WEATHER ROUNDUP
NATIONAL WEATHER SERVICE ALBANY NY
100 PM EDT SUN MAY 24 2015

NOTE: "FAIR" INDICATES FEW OR NO CLOUDS BELOW 12,000 FEET WITH NO
SIGNIFICANT WEATHER AND/OR NO OBSTRUCTIONS TO VISIBILITY.

NYZ032-033-038>043-046>054-057>066-NYZ062>081-241800-
EAST


CITY           SKY/WX    TMP DP  RH WIND       PRES   REMARKS
ALBANY         MOSUNNY   80  37  21 W12       30.23F
GLENS FALLS    SUNNY     78  39  24 SW15      30.18F
POUGHKEEPSIE   MOSUNNY   77  39  25 SW12      30.27F
NEWBURGH       MOSUNNY   73  63  68 W13       30.29F
MONTGOMERY     PTSUNNY   76  41  28 SW7       30.28F
WHITE PLAINS   PTSUNNY   75  40  28 VRB5      30.29F
ISLIP          PTSUNNY   69  51  52 S13       30.31F
NEW YORK CITY  PTSUNNY   78  34  20 VRB5      30.30F
CENTRAL PARK   MOSUNNY   78  37  22 W7        30.33F
$$

NYZ005>009-017-018-044>046-055-056-241800-
CENTRAL


CITY           SKY/WX    TMP DP  RH WIND       PRES   REMARKS
FULTON         MOSUNNY   77  40  26 W14G21    30.24F
SYRACUSE       PTSUNNY   76  42  29 VRB7      30.25S
ROME           SUNNY     73  42  32 W13       30.25F
ELMIRA         MOSUNNY   76  38  25 SW10      30.27F
BINGHAMTON     PTSUNNY   70  39  32 VRB6      30.30F
MONTICELLO     MOSUNNY   72  37  28 SW8G17    30.32F
$$

NYZ026>034-041>043-241800-
NORTH


CITY           SKY/WX    TMP DP  RH WIND       PRES   REMARKS
WATERTOWN      SUNNY     70  38  31 W13G24    30.22S
FORT DRUM      NOT AVBL
MASSENA        MOSUNNY   73  41  31 SW18G25   30.14F
SARANAC LAKE   MOSUNNY   70  33  25 W13G25    30.18F
PLATTSBURGH    PTSUNNY   78  38  23 SW12G18   30.10F
$$

NYZ001>004-010>016-019>021-241800-
WEST


CITY           SKY/WX    TMP DP  RH WIND       PRES   REMARKS
NIAGARA FALLS  PTSUNNY   75  43  31 SW17      30.25S
BUFFALO        PTSUNNY   73  42  32 SW18G28   30.27S
DUNKIRK        PTSUNNY   74  44  34 W15G23    30.28S
JAMESTOWN      PTSUNNY   72  45  37 SW13      30.32S
WELLSVILLE     MOSUNNY   74  41  30 W7        30.33F
ROCHESTER      PTSUNNY   80  38  22 W10       30.25S
PENN YAN       MOSUNNY   75  34  22 S8        30.27F
$$

             KEY
       WCI = WIND CHILL INDEX
       VSB = VISIBILITY
       HX  = HEAT INDEX
$$


USA.gov is the U.S. government's official web portal to all federal, state and local government web resources and services.